UAE150 EGLL-EBCI

Flight info

Callsign UAE150
Flight time 0h 41m
Altitude 23000
Route DET L6 DVR L9 KONAN/N0408F190 L607 KOK
Aircraft B77L/H-SDE1E2E3FGHIJ2J3J4J5M1RWXY/LB1D1

Departure

Time 2026-05-07 19:00
Airport London Heathrow Airport (EGLL)

Arrival

Time 2026-05-07 19:41
Airport Brussels South Charleroi Airport (EBCI)
Time Latitude Longitude Altitude Speed Heading
2026-05-07 18:11 51.46196 -0.47381 91 ft 0 kts 235°
2026-05-07 18:48 51.46196 -0.47380 91 ft 1 kts 235°
2026-05-07 18:48 51.46210 -0.47349 94 ft 4 kts 235°
2026-05-07 18:49 51.46224 -0.47319 93 ft 4 kts 241°
2026-05-07 18:49 51.46229 -0.47284 91 ft 4 kts 298°
2026-05-07 18:49 51.46211 -0.47263 92 ft 4 kts 354°
2026-05-07 18:49 51.46214 -0.47262 92 ft 4 kts 359°
2026-05-07 18:50 51.46232 -0.47262 92 ft 4 kts 359°
2026-05-07 18:50 51.46242 -0.47263 91 ft 0 kts 359°
2026-05-07 18:53 51.46244 -0.47263 93 ft 2 kts 359°
2026-05-07 18:53 51.46288 -0.47264 94 ft 5 kts 353°
2026-05-07 18:53 51.46315 -0.47306 93 ft 6 kts 298°
2026-05-07 18:53 51.46319 -0.47323 95 ft 0 kts 289°
2026-05-07 18:55 51.46319 -0.47324 92 ft 0 kts 289°
2026-05-07 18:55 51.46330 -0.47380 96 ft 9 kts 285°
2026-05-07 18:55 51.46338 -0.47477 95 ft 9 kts 271°
2026-05-07 18:55 51.46338 -0.47575 94 ft 9 kts 269°
2026-05-07 18:56 51.46324 -0.47671 96 ft 9 kts 244°
2026-05-07 18:56 51.46284 -0.47781 96 ft 13 kts 239°
2026-05-07 18:56 51.46253 -0.47921 96 ft 14 kts 268°
2026-05-07 18:56 51.46251 -0.48074 94 ft 14 kts 269°
2026-05-07 18:57 51.46249 -0.48256 89 ft 21 kts 269°
2026-05-07 18:57 51.46249 -0.48472 90 ft 16 kts 270°
2026-05-07 18:57 51.46264 -0.48623 93 ft 8 kts 293°
2026-05-07 18:57 51.46269 -0.48639 94 ft 3 kts 298°
2026-05-07 18:58 51.46282 -0.48669 93 ft 3 kts 308°
2026-05-07 18:58 51.46308 -0.48707 94 ft 9 kts 323°
2026-05-07 18:58 51.46383 -0.48748 93 ft 12 kts 353°
2026-05-07 18:58 51.46462 -0.48726 95 ft 12 kts 41°
2026-05-07 18:59 51.46478 -0.48646 95 ft 0 kts 89°
2026-05-07 18:59 51.46478 -0.48627 91 ft 9 kts 89°
2026-05-07 18:59 51.46480 -0.48377 91 ft 46 kts 90°
2026-05-07 19:00 51.46480 -0.47404 90 ft 128 kts 90°
2026-05-07 19:00 51.46465 -0.45592 217 ft 187 kts 93°
2026-05-07 19:00 51.46427 -0.43443 939 ft 198 kts 94°
2026-05-07 19:00 51.46390 -0.41170 1693 ft 210 kts 94°
2026-05-07 19:01 51.46353 -0.38842 2709 ft 205 kts 91°
2026-05-07 19:01 51.46325 -0.36581 3599 ft 208 kts 98°
2026-05-07 19:01 51.45678 -0.34448 3710 ft 224 kts 136°
2026-05-07 19:01 51.44377 -0.32928 3921 ft 239 kts 145°
2026-05-07 19:02 51.43113 -0.31133 4382 ft 246 kts 126°
2026-05-07 19:02 51.42385 -0.28653 4942 ft 251 kts 101°
2026-05-07 19:02 51.42201 -0.25906 5467 ft 254 kts 95°
2026-05-07 19:02 51.41966 -0.23095 5949 ft 254 kts 99°
2026-05-07 19:03 51.41636 -0.20259 5998 ft 263 kts 101°
2026-05-07 19:03 51.41264 -0.17398 6007 ft 262 kts 102°
2026-05-07 19:03 51.40884 -0.14565 5999 ft 259 kts 102°
2026-05-07 19:03 51.40500 -0.11752 5937 ft 260 kts 102°
2026-05-07 19:04 51.40106 -0.08895 5998 ft 265 kts 102°
2026-05-07 19:04 51.39704 -0.05987 6004 ft 270 kts 102°
2026-05-07 19:04 51.39304 -0.03093 6025 ft 270 kts 102°
2026-05-07 19:04 51.38898 -0.00166 6272 ft 268 kts 102°
2026-05-07 19:05 51.38491 0.02756 6740 ft 271 kts 103°
2026-05-07 19:05 51.38076 0.05730 7172 ft 276 kts 103°
2026-05-07 19:05 51.37655 0.08738 7599 ft 279 kts 103°
2026-05-07 19:05 51.37230 0.11780 8028 ft 282 kts 104°
2026-05-07 19:06 51.36797 0.14857 8477 ft 284 kts 104°
2026-05-07 19:06 51.35923 0.21067 9403 ft 287 kts 104°
2026-05-07 19:06 51.35483 0.24179 9928 ft 287 kts 104°
2026-05-07 19:07 51.35041 0.27301 10423 ft 289 kts 104°
2026-05-07 19:07 51.34592 0.30459 10920 ft 292 kts 104°
2026-05-07 19:07 51.34144 0.33612 11431 ft 296 kts 104°
2026-05-07 19:07 51.33687 0.36833 11944 ft 299 kts 104°
2026-05-07 19:08 51.33222 0.40091 12462 ft 302 kts 104°
2026-05-07 19:08 51.32751 0.43381 12846 ft 303 kts 105°
2026-05-07 19:08 51.32285 0.46642 13508 ft 301 kts 105°
2026-05-07 19:08 51.31817 0.49899 14096 ft 299 kts 105°
2026-05-07 19:09 51.31351 0.53130 14687 ft 297 kts 105°
2026-05-07 19:09 51.30889 0.56328 15267 ft 293 kts 105°
2026-05-07 19:09 51.30430 0.59487 15786 ft 292 kts 105°
2026-05-07 19:09 51.29909 0.62662 16053 ft 300 kts 108°
2026-05-07 19:10 51.29310 0.65939 16162 ft 315 kts 108°
2026-05-07 19:10 51.28670 0.69370 16320 ft 329 kts 108°
2026-05-07 19:10 51.28012 0.72899 16453 ft 344 kts 108°
2026-05-07 19:10 51.27315 0.76653 16608 ft 360 kts 108°
2026-05-07 19:11 51.26592 0.80568 16757 ft 376 kts 108°
2026-05-07 19:11 51.25837 0.84659 16897 ft 392 kts 108°
2026-05-07 19:11 51.25053 0.88916 17111 ft 406 kts 108°
2026-05-07 19:11 51.24246 0.93295 17477 ft 416 kts 108°
2026-05-07 19:12 51.23423 0.97755 17977 ft 422 kts 108°
2026-05-07 19:12 51.22609 1.02158 18502 ft 425 kts 108°
2026-05-07 19:12 51.21768 1.06695 19035 ft 428 kts 108°
2026-05-07 19:12 51.20931 1.11193 19547 ft 430 kts 108°
2026-05-07 19:13 51.20078 1.15768 20138 ft 430 kts 108°
2026-05-07 19:13 51.19230 1.20310 20867 ft 426 kts 108°
2026-05-07 19:13 51.18386 1.24821 21612 ft 422 kts 108°
2026-05-07 19:13 51.17549 1.29278 22392 ft 418 kts 108°
2026-05-07 19:14 51.16736 1.33699 23036 ft 417 kts 105°
2026-05-07 19:14 51.16136 1.38305 23042 ft 433 kts 98°
2026-05-07 19:14 51.15859 1.43158 23081 ft 447 kts 95°
2026-05-07 19:14 51.15643 1.48166 23088 ft 457 kts 95°
2026-05-07 19:15 51.15428 1.53228 23081 ft 459 kts 95°
2026-05-07 19:15 51.15207 1.58224 23074 ft 459 kts 95°
2026-05-07 19:15 51.14970 1.63291 23069 ft 458 kts 95°
2026-05-07 19:15 51.14724 1.68342 23069 ft 458 kts 95°
2026-05-07 19:16 51.14471 1.73396 23071 ft 457 kts 95°
2026-05-07 19:16 51.14215 1.78436 23070 ft 457 kts 95°
2026-05-07 19:16 51.13957 1.83478 23071 ft 457 kts 95°
2026-05-07 19:16 51.13697 1.88523 23074 ft 457 kts 95°
2026-05-07 19:17 51.13437 1.93555 23070 ft 457 kts 95°
2026-05-07 19:17 51.13174 1.98598 23074 ft 457 kts 95°
2026-05-07 19:17 51.12915 2.03513 23074 ft 457 kts 96°
2026-05-07 19:17 51.12651 2.08487 23077 ft 457 kts 96°
2026-05-07 19:18 51.12381 2.13532 23074 ft 458 kts 96°
2026-05-07 19:18 51.12109 2.18582 23077 ft 458 kts 96°
2026-05-07 19:18 51.11835 2.23637 23073 ft 458 kts 96°
2026-05-07 19:18 51.11559 2.28688 23072 ft 459 kts 96°
2026-05-07 19:19 51.11280 2.33745 23071 ft 459 kts 96°
2026-05-07 19:19 51.11000 2.38800 23073 ft 459 kts 96°
2026-05-07 19:19 51.10717 2.43851 23069 ft 459 kts 96°
2026-05-07 19:19 51.10432 2.48916 23072 ft 459 kts 96°
2026-05-07 19:20 51.10145 2.53967 23071 ft 459 kts 96°
2026-05-07 19:20 51.09861 2.58949 23073 ft 459 kts 96°
2026-05-07 19:20 51.09570 2.64004 23064 ft 459 kts 96°
2026-05-07 19:20 51.09194 2.69039 23020 ft 456 kts 100°
2026-05-07 19:21 51.08640 2.74015 22768 ft 459 kts 102°
2026-05-07 19:21 51.08002 2.78992 22243 ft 458 kts 103°
2026-05-07 19:21 51.07347 2.83923 21852 ft 452 kts 103°
2026-05-07 19:21 51.06709 2.88785 21449 ft 447 kts 102°
2026-05-07 19:22 51.06094 2.93587 21053 ft 441 kts 102°
2026-05-07 19:22 51.05498 2.98342 20668 ft 436 kts 102°
2026-05-07 19:22 51.04930 3.02928 20295 ft 432 kts 102°
2026-05-07 19:22 51.04358 3.07580 19915 ft 428 kts 102°
2026-05-07 19:23 51.03795 3.12153 19552 ft 426 kts 102°
2026-05-07 19:23 51.03225 3.16771 19194 ft 427 kts 102°
2026-05-07 19:23 51.02651 3.21404 18841 ft 428 kts 102°
2026-05-07 19:23 51.02076 3.26024 18484 ft 426 kts 102°
2026-05-07 19:24 51.01500 3.30635 18088 ft 424 kts 102°
2026-05-07 19:24 51.00925 3.35218 17682 ft 422 kts 102°
2026-05-07 19:24 51.00353 3.39764 17284 ft 419 kts 102°
2026-05-07 19:24 50.99781 3.44296 16892 ft 417 kts 102°
2026-05-07 19:25 50.99213 3.48789 16500 ft 415 kts 102°
2026-05-07 19:25 50.98651 3.53206 16119 ft 412 kts 102°
2026-05-07 19:25 50.98085 3.57645 15743 ft 409 kts 102°
2026-05-07 19:25 50.97521 3.62059 15358 ft 407 kts 102°
2026-05-07 19:26 50.96959 3.66438 14990 ft 404 kts 102°
2026-05-07 19:26 50.96398 3.70799 14629 ft 402 kts 102°
2026-05-07 19:26 50.95839 3.75129 14259 ft 400 kts 102°
2026-05-07 19:26 50.95282 3.79435 13894 ft 397 kts 102°
2026-05-07 19:27 50.94727 3.83710 13498 ft 395 kts 102°
2026-05-07 19:27 50.94173 3.87964 13096 ft 393 kts 102°
2026-05-07 19:27 50.93629 3.92132 12710 ft 390 kts 102°
2026-05-07 19:27 50.93077 3.96327 12314 ft 386 kts 104°
2026-05-07 19:28 50.92159 4.00152 11879 ft 378 kts 124°
2026-05-07 19:28 50.90468 4.03212 11531 ft 369 kts 136°
2026-05-07 19:28 50.88654 4.06121 11174 ft 373 kts 136°
2026-05-07 19:28 50.86700 4.08847 10808 ft 375 kts 142°
2026-05-07 19:29 50.84617 4.11331 10452 ft 374 kts 144°
2026-05-07 19:29 50.82512 4.13735 10103 ft 373 kts 145°
2026-05-07 19:29 50.80414 4.16139 9707 ft 372 kts 144°
2026-05-07 19:29 50.78336 4.18549 9302 ft 368 kts 144°
2026-05-07 19:30 50.76321 4.20914 8907 ft 363 kts 144°
2026-05-07 19:30 50.74309 4.23288 8500 ft 359 kts 143°
2026-05-07 19:30 50.72321 4.25635 8114 ft 354 kts 143°
2026-05-07 19:30 50.70362 4.27947 7725 ft 351 kts 143°
2026-05-07 19:31 50.68341 4.30012 7316 ft 344 kts 154°
2026-05-07 19:31 50.66145 4.31500 6970 ft 343 kts 159°
2026-05-07 19:31 50.63903 4.32801 6609 ft 344 kts 160°
2026-05-07 19:31 50.61651 4.34097 6229 ft 345 kts 160°
2026-05-07 19:32 50.59410 4.35426 5826 ft 344 kts 159°
2026-05-07 19:32 50.57183 4.36780 5448 ft 341 kts 159°
2026-05-07 19:32 50.54992 4.37881 5025 ft 331 kts 159°
2026-05-07 19:32 50.53007 4.39659 4619 ft 331 kts 137°
2026-05-07 19:33 50.51601 4.42504 4246 ft 332 kts 116°
2026-05-07 19:33 50.50983 4.45970 4004 ft 328 kts 94°
2026-05-07 19:33 50.51052 4.49534 4010 ft 327 kts 85°
2026-05-07 19:33 50.51309 4.53052 3988 ft 317 kts 82°
2026-05-07 19:34 50.51923 4.56283 3988 ft 304 kts 61°
2026-05-07 19:34 50.53187 4.58811 3994 ft 286 kts 46°
2026-05-07 19:34 50.54587 4.60900 3978 ft 270 kts 43°
2026-05-07 19:34 50.55936 4.62803 3975 ft 260 kts 43°
2026-05-07 19:35 50.57284 4.64689 3997 ft 259 kts 42°
2026-05-07 19:35 50.58631 4.66579 3996 ft 260 kts 42°
2026-05-07 19:35 50.59961 4.68485 3988 ft 255 kts 49°
2026-05-07 19:35 50.60734 4.70891 3945 ft 247 kts 86°
2026-05-07 19:36 50.60409 4.73484 3937 ft 246 kts 123°
2026-05-07 19:36 50.59132 4.75226 3967 ft 249 kts 159°
2026-05-07 19:36 50.57453 4.75885 3932 ft 256 kts 169°
2026-05-07 19:36 50.55677 4.76063 3493 ft 258 kts 187°
2026-05-07 19:37 50.54041 4.75070 3111 ft 253 kts 218°
2026-05-07 19:37 50.52950 4.72903 3049 ft 257 kts 249°
2026-05-07 19:37 50.52652 4.70226 3013 ft 240 kts 276°
2026-05-07 19:37 50.52839 4.67765 2981 ft 219 kts 262°
2026-05-07 19:38 50.52243 4.65734 3054 ft 202 kts 231°
2026-05-07 19:38 50.51435 4.63995 3002 ft 192 kts 239°
2026-05-07 19:38 50.50867 4.62184 3002 ft 179 kts 244°
2026-05-07 19:38 50.50367 4.60450 2984 ft 170 kts 244°
2026-05-07 19:39 50.49899 4.58721 2536 ft 184 kts 249°
2026-05-07 19:39 50.49396 4.56873 1898 ft 178 kts 245°
2026-05-07 19:39 50.48887 4.55199 1474 ft 162 kts 242°
2026-05-07 19:39 50.48404 4.53594 1141 ft 163 kts 244°
2026-05-07 19:40 50.47909 4.51946 1112 ft 161 kts 246°
2026-05-07 19:40 50.47467 4.50375 1020 ft 154 kts 244°
2026-05-07 19:40 50.47029 4.48878 867 ft 150 kts 245°
2026-05-07 19:40 50.46576 4.47327 661 ft 156 kts 245°
2026-05-07 19:41 50.46157 4.45879 598 ft 129 kts 245°
2026-05-07 19:41 50.45942 4.45141 596 ft 53 kts 245°
2026-05-07 19:41 50.45880 4.44871 600 ft 12 kts 284°
2026-05-07 19:41 50.45942 4.44781 601 ft 12 kts 333°
2026-05-07 19:42 50.45994 4.44773 601 ft 3 kts 19°
2026-05-07 19:42 50.46000 4.44778 601 ft 0 kts 28°
2026-05-07 19:44 50.46009 4.44789 601 ft 5 kts 40°
2026-05-07 19:44 50.46040 4.44855 601 ft 11 kts 61°
2026-05-07 19:44 50.46084 4.45004 600 ft 17 kts 65°
2026-05-07 19:45 50.46134 4.45176 603 ft 17 kts 65°
2026-05-07 19:45 50.46184 4.45347 603 ft 17 kts 65°
2026-05-07 19:45 50.46233 4.45516 617 ft 17 kts 65°
2026-05-07 19:45 50.46286 4.45699 602 ft 21 kts 65°
2026-05-07 19:46 50.46348 4.45914 602 ft 22 kts 65°
2026-05-07 19:46 50.46411 4.46130 596 ft 22 kts 65°
2026-05-07 19:46 50.46474 4.46348 594 ft 22 kts 65°
2026-05-07 19:46 50.46528 4.46529 594 ft 12 kts 59°
2026-05-07 19:47 50.46577 4.46547 595 ft 5 kts 346°
2026-05-07 19:47 50.46614 4.46541 594 ft 6 kts
2026-05-07 19:47 50.46656 4.46561 593 ft 7 kts 21°
2026-05-07 19:47 50.46697 4.46586 591 ft 4 kts 21°
2026-05-07 19:48 50.46719 4.46598 590 ft 2 kts 20°
2026-05-07 19:48 50.46726 4.46602 590 ft 1 kts 20°
2026-05-07 19:48 50.46729 4.46604 590 ft 0 kts 20°